This demonstration page uses our WeatherBlox Daily Observations layout. Learn more.

Left ArrowRight Arrow

Hourly Observations for June 20, 2017

Temp ( °F °C ) Dew Point ( °F °C ) Humidity (%) Winds ( mph kmh ) Pressure ( in mb ) Visibility ( mi km ) Precip ( " mm )
12:07 am 00:07 Partly Cloudy 68 20 50 10 53 53 NW 8 13 30.00 1016 10 16 N/A
12:27 am 00:27 Mostly Cloudy 68 20 50 10 53 53 WNW 7 11 30.00 1016 10 16 N/A
12:46 am 00:46 Mostly Cloudy 64 18 52 11 64 64 W 6 9 30.00 1016 10 16 N/A
1:07 am 01:07 Partly Cloudy 63 17 52 11 68 68 WSW 7 11 30.00 1016 10 16 N/A
1:26 am 01:26 Clear 61 16 52 11 72 72 WSW 6 9 30.00 1016 10 16 N/A
1:47 am 01:47 Clear 63 17 52 11 68 68 WSW 6 9 30.00 1016 10 16 N/A
2:07 am 02:07 Clear 61 16 52 11 72 72 WSW 6 9 30.00 1016 10 16 N/A
2:26 am 02:26 Clear 61 16 52 11 72 72 WSW 7 11 30.00 1016 10 16 N/A
2:47 am 02:47 Clear 61 16 52 11 72 72 WSW 7 11 30.00 1016 10 16 N/A
3:06 am 03:06 Clear 61 16 52 11 72 72 SW 7 11 30.00 1016 10 16 N/A
3:27 am 03:27 Clear 63 17 52 11 68 68 WSW 9 15 30.00 1016 10 16 N/A
3:47 am 03:47 Clear 61 16 52 11 72 72 WSW 9 15 30.00 1016 10 16 N/A
4:06 am 04:06 Clear 61 16 52 11 72 72 WSW 7 11 30.00 1016 10 16 N/A
4:27 am 04:27 Clear 59 15 52 11 77 77 WSW 6 9 30.00 1016 10 16 N/A
4:46 am 04:46 Clear 59 15 52 11 77 77 WSW 7 11 30.00 1016 10 16 N/A
5:07 am 05:07 Clear 59 15 52 11 77 77 WSW 7 11 30.00 1016 10 16 N/A
5:26 am 05:26 Clear 59 15 52 11 77 77 SW 7 11 30.00 1016 10 16 N/A
5:47 am 05:47 Clear 59 15 52 11 77 77 SW 8 13 30.00 1016 10 16 N/A
6:07 am 06:07 Clear 61 16 52 11 72 72 SW 8 13 30.00 1016 10 16 N/A
6:27 am 06:27 Sunny 59 15 52 11 77 77 WSW 7 11 30.03 1017 10 16 N/A
6:47 am 06:47 Sunny 59 15 52 11 77 77 WSW 7 11 30.03 1017 10 16 N/A
7:06 am 07:06 Sunny 61 16 52 11 72 72 WSW 6 9 30.03 1017 10 16 N/A
7:27 am 07:27 Sunny 61 16 54 12 77 77 SW 6 9 30.03 1017 10 16 N/A
7:47 am 07:47 Sunny 63 17 54 12 73 73 WSW 3 6 30.03 1017 10 16 N/A
8:07 am 08:07 Sunny 64 18 54 12 68 68 WSW 5 7 30.03 1017 10 16 N/A
8:27 am 08:27 Sunny 64 18 54 12 68 68 WSW 6 9 30.03 1017 10 16 N/A
8:46 am 08:46 Sunny 68 20 54 12 60 60 W 5 7 30.03 1017 10 16 N/A
9:07 am 09:07 Sunny 68 20 54 12 60 60 W 5 7 30.06 1018 10 16 N/A
9:27 am 09:27 Sunny 70 21 55 13 60 60 W 6 9 30.06 1018 10 16 N/A
9:46 am 09:46 Sunny 72 22 54 12 53 53 W 7 11 30.03 1017 10 16 N/A
10:07 am 10:07 Sunny 73 23 52 11 47 47 WNW 8 13 30.03 1017 10 16 N/A
10:26 am 10:26 Sunny 73 23 52 11 47 47 WNW 3 6 30.03 1017 10 16 N/A
10:47 am 10:47 Sunny 73 23 52 11 47 47 W 8 13 30.03 1017 10 16 N/A
11:07 am 11:07 Sunny 75 24 52 11 44 44 WSW 9 15 30.03 1017 10 16 N/A
11:27 am 11:27 Sunny 77 25 52 11 42 42 W 12 19 30.03 1017 10 16 N/A
11:47 am 11:47 Sunny 77 25 54 12 44 44 WNW 14 22 30.00 1016 10 16 N/A
12:07 pm 12:07 Sunny 79 26 54 12 42 42 W 17 28 30.00 1016 10 16 N/A
12:27 pm 12:27 Sunny 79 26 54 12 42 42 WSW 15 24 30.00 1016 10 16 N/A
12:46 pm 12:46 Sunny 79 26 54 12 42 42 W 17 28 30.00 1016 10 16 N/A
1:07 pm 13:07 Sunny 79 26 54 12 42 42 W 13 20 30.00 1016 10 16 N/A
1:27 pm 13:27 Partly Cloudy 81 27 54 12 39 39 WNW 20 31 30.00 1016 10 16 N/A
1:47 pm 13:47 Sunny 81 27 50 10 34 34 W 20 31 30.00 1016 10 16 N/A
2:06 pm 14:06 Sunny 81 27 50 10 34 34 W 18 30 29.97 1015 10 16 N/A
2:27 pm 14:27 Partly Cloudy 82 28 52 11 35 35 WNW 14 22 29.97 1015 10 16 N/A
2:47 pm 14:47 Partly Cloudy 81 27 52 11 37 37 W 17 28 29.97 1015 10 16 N/A
3:07 pm 15:07 Sunny 82 28 54 12 37 37 WNW 12 19 29.97 1015 10 16 N/A
3:27 pm 15:27 Sunny 81 27 54 12 39 39 NW 9 15 29.97 1015 10 16 N/A
3:46 pm 15:46 Sunny 82 28 54 12 37 37 W 7 11 29.97 1015 10 16 N/A
4:07 pm 16:07 Sunny 82 28 54 12 37 37 W 14 22 29.97 1015 10 16 N/A
4:27 pm 16:27 Sunny 82 28 52 11 35 35 W 15 24 29.97 1015 10 16 N/A
4:47 pm 16:47 Sunny 82 28 52 11 35 35 W 13 20 29.94 1014 10 16 N/A
5:07 pm 17:07 Sunny 82 28 52 11 35 35 WNW 13 20 29.94 1014 10 16 N/A
5:26 pm 17:26 Sunny 82 28 50 10 32 32 WSW 13 20 29.94 1014 10 16 N/A
5:47 pm 17:47 Sunny 82 28 50 10 32 32 W 13 20 29.94 1014 10 16 N/A
6:07 pm 18:07 Sunny 82 28 50 10 32 32 SW 10 17 29.91 1013 10 16 N/A
6:27 pm 18:27 Partly Cloudy 82 28 52 11 35 35 WSW 8 13 29.91 1013 10 16 N/A
6:47 pm 18:47 Sunny 84 29 50 10 31 31 SW 9 15 29.91 1013 10 16 N/A
7:07 pm 19:07 Partly Cloudy 82 28 50 10 32 32 WSW 13 20 29.91 1013 10 16 N/A
7:27 pm 19:27 Partly Cloudy 82 28 50 10 32 32 SW 13 20 29.91 1013 10 16 N/A
7:47 pm 19:47 Partly Cloudy 82 28 50 10 32 32 SW 10 17 29.91 1013 10 16 N/A
8:07 pm 20:07 Sunny 81 27 52 11 37 37 SW 9 15 29.91 1013 10 16 N/A
8:27 pm 20:27 Sunny 81 27 50 10 34 34 SW 9 15 29.91 1013 10 16 N/A
8:47 pm 20:47 Sunny 79 26 52 11 39 39 SSW 7 11 29.91 1013 10 16 N/A
9:07 pm 21:07 Sunny 77 25 52 11 42 42 SSW 7 11 29.91 1013 10 16 N/A
9:27 pm 21:27 Clear 77 25 52 11 42 42 SSW 6 9 29.91 1013 10 16 N/A
9:47 pm 21:47 Mostly Cloudy 77 25 54 12 44 44 SSW 6 9 29.91 1013 10 16 N/A
10:07 pm 22:07 Cloudy 64 18 61 16 88 88 NW 12 19 30.03 1017 3 4 N/A
10:26 pm 22:26 Cloudy 64 18 63 17 94 94 NE 10 17 30.00 1016 5 8 N/A
10:47 pm 22:47 Cloudy 63 17 61 16 94 94 N 9 15 30.03 1017 10 16 N/A
11:07 pm 23:07 Cloudy 63 17 61 16 94 94 NNE 6 9 30.03 1017 10 16 N/A
11:27 pm 23:27 Cloudy 63 17 61 16 94 94 NNE 7 11 30.00 1016 10 16 N/A
11:46 pm 23:46 Cloudy 63 17 61 16 94 94 ENE 8 13 30.00 1016 10 16 N/A

Powered by AerisWeather